Showing default

O3B FM12, 40350

Orbit data source: Space-Track

O3B FM12, 40350 is a payload satellite owned by O3B (JE) that was launched on Thu, 18 Dec 2014 UTC via a SOYUZ-ST-B launch vehicle from the French Guiana (FRGUI). Payload-class satellites include a variety of spacecraft equipped with specific instruments for various scientific and technological missions. These include communications satellites like Starlink; space stations such as the ISS; scientific satellites like the Hubble; Earth observation satellites from companies like Planet Labs, Umbra, and HawkEye 360; GPS; miniature CubeSats for education and research; and military/defense satellites.

Loading next visibility...
Identifier
40350, 2014-083C
Orbit
Active
Country
Flag of UnknownUnknown / O3B
Related business
Manufacturer
Thales Alenia
Mission
Operational Commercial Communications
Bus & Motor
PRISMA?, LS-400 AOCS?
Mass
700 kg wet, ~500 kg dry
Launch date (UTC)
2014-12-18 (11 years ago)
Launch vehicle
SOYUZ-ST-B
Launch site
French Guiana (FRGUI)
Object type
Payload
Rocket body
Debris
Shape & HBR
Trap Box + 2 Pan, 6.0 m
Radar Cross Section
21.980 m², Large (>1 m²)

Expand to show TLE details & history
Last TLE update: 13 hours ago

TLE from 13 hours ago
0 O3B FM12
1 40350U 14083C   25258.94938525 -.00000029  00000-0  00000-0 0  9997
2 40350   0.0482   1.7544 0002606 168.4663 189.7846  5.00115813196202
Epoch: 2025-09-15T22:47Z
TLE epoch observation values (Epoch: 2025-09-15T22:47:06.885Z)
Latitude
-0.00328°
Longitude
23.07466°
Altitude
8,068.078 km
Speed
5.253 km/s
True Right ascension
00h 00m 00s
True Declination
0° 00' 12"
Sunlit
Object was in full shadow at epoch
Visualization orbit readout
Latitude
Unknown
Longitude
Unknown
Altitude
Unknown
Speed
Unknown
Apparent Right ascension
Unknown
Apparent Declination
Unknown
Sunlit
N/A
Visualization observer readout
Local Sidereal Time
04:21:09
Azimuth
Unknown
Elevation
Unknown
Doppler factor
Unknown
Orbital elements
Apogee altitude
8,072.708 km
Perigee altitude
8,065.178 km
Semi-major axis
14,447.08 km
Eccentricity
0.00026
Inclination
0.0482°
RAAN
1.7544°
Arg. of periapsis
168.4663°
True anomaly
189.77953°
Mean anomaly
189.7846°
Eccentric anomaly
189.78206°
Mean motion
1.24989 °/min
Orbital period
288.02 mins
BSTAR
0
Loading maneuver chart data...
Computing Atmospheric mass density...
Loading historical data...
Loading historical data...
Loading historical data...
Loading historical data...
Loading historical data...
Loading historical data...
Loading historical data...
Other satellites on launch #83 in the year 2014 (2014-12-18 UTC)

Documentation

Showing up to 5 results
|